Back to catalog

FENGYUN 1C DEB

AliveSSO
NORAD 32198·DEBRIS·🇨🇳 China

Launched May 10, 1999 from Taiyuan Satellite Launch Center

Loading…

Next Passes (next 24 hours)

TLE

AgingSource: Space-Track

Epoch: Sep 8, 2026, 03:04 UTC

1 32198U 99025CUU 26251.12813970  .00002099  00000-0  11546-2 0  9994
2 32198  98.3579  23.7150 0093519 239.3842 119.8083 14.10440602607412

Track FENGYUN 1C DEB in real time with AllMySat

Download on the App Store